Regional Weather Roundup
Issued by NWS

Home | Current Version | Previous Version | Graphics & Text | Print | Product List | Glossary On
Versions: 1 2 3 4 5 6 7 8 9 10 11 12 13 14 15 16 17 18 19 20 21 22 23 24 25 26 27 28 29 30 31 32 33 34 35 36 37 38 39 40 41 42 43 44 45 46 47 48 49 50
000
ASUS44 KMEG 252000
RWRTN
TENNESSEE HOURLY STATE WEATHER ROUNDUP
NATIONAL WEATHER SERVICE MEMPHIS TN
300 PM CDT WED MAY 25 2016

TNZ002-004-019-021-049-052-054-088>092-252100-
WEST TENNESSEE

CITY           SKY/WX    TMP DP  RH WIND       PRES   REMARKS
MEMPHIS INTL   TSTM      78  73  84 S7        30.08S FOG
NWS MEMPHIS      N/A     82 N/A N/A MISG        N/A
JACKSON        PTSUNNY   83  71  67 S10       30.05F
DYERSBURG      CLOUDY    73  72  94 N6        30.06F
UNION CITY     CLOUDY    73  72  94 SW13      30.07F
PARIS          MOSUNNY   73  68  83 N8        30.08F
LEXINGTON      MOSUNNY   84  63  48 S7        30.07F
$$

TNZ008-025-027-028-033-062-065-066-252100-
NORTH MIDDLE TENNESSEE

CITY           SKY/WX    TMP DP  RH WIND       PRES   REMARKS
NASHVILLE      CLOUDY    85  61  44 S12       30.11F
CLARKSVILLE    TSTM      69  67  93 N12       30.14R VSB 1
COOKEVILLE     SUNNY     82  64  54 S7        30.15F
CROSSVILLE     CLOUDY    77  59  53 CALM      30.21F
$$

TNZ061-075-076-078-094-096-097-252100-
SOUTH MIDDLE TENNESSEE

CITY           SKY/WX    TMP DP  RH WIND       PRES   REMARKS
TULLAHOMA      SUNNY     82  59  44 S9        30.16F
WINCHESTER     MOSUNNY   88  61  40 S13       30.15F
MCMINNVILLE    MOSUNNY   84  63  48 S8        30.15F
COLUMBIA       MOSUNNY   88  64  45 S10       30.10F
SHELBYVILLE    PTSUNNY   88  63  42 S13       30.14F
$$

TNZ017-018-042-046-047-252100-
NORTHEAST TENNESSEE

CITY           SKY/WX    TMP DP  RH WIND       PRES   REMARKS
TRI CITIES     MOSUNNY   83  56  39 VRB3      30.20F
$$

TNZ012-013-036-069-073-074-252100-
CENTRAL EAST TENNESSEE

CITY           SKY/WX    TMP DP  RH WIND       PRES   REMARKS
KNOXVILLE      PTSUNNY   83  55  38 W9        30.17F
OAK RIDGE      CLOUDY    81  58  45 VRB7      30.19F
GATLINBURG       N/A     82  57  42 W9        30.17F
$$

TNZ083-085-099-252100-
SOUTHEAST TENNESSEE

CITY           SKY/WX    TMP DP  RH WIND       PRES   REMARKS
CHATTANOOGA    PTSUNNY   87  57  35 S10G16    30.16F
$$

SKY/WX REPORTED AS FAIR MEANS FEW OR NO CLOUDS BELOW
12 THOUSAND FEET.





USA.gov is the U.S. government's official web portal to all federal, state and local government web resources and services.